Broomfield, CO

7:47 PM MST on December 15, 2017 (GMT -0700)
Jeffco

Weather History for KBJC - July, 2014

Change the Weather History Date:

Tuesday, July 22, 2014

  Actual Average Record
Temperature  
Mean Temperature 80 °F -  
Max Temperature 93 °F 85 °F 98 °F (2005)
Min Temperature 66 °F 62 °F 50 °F (1986)
Cooling Degree Days 14    
Growing Degree Days 30 (Base 50)    
Moisture  
Dew Point 44 °F    
Average Humidity 33    
Maximum Humidity 47    
Minimum Humidity 20    
Precipitation  
Precipitation 0.00 in - - ()
Sea Level Pressure  
Sea Level Pressure 30.28 in    
Wind  
Wind Speed 5 mph (WNW)    
Max Wind Speed 13 mph    
Max Gust Speed -    
Visibility 10 miles    
Events      
Averages and records for this station are not official NWS values.
T = Trace of Precipitation, MM = Missing Value Source: NWS Daily Summary

Daily Weather History Graph

Daily Weather History Graph

Search for Another Location

Airport or City:

Trip Planner

Search our weather history database for the weather conditions in past years. The results will help you decide how hot, cold, wet, or windy it might be!

Date:

Astronomy

Jul. 22, 2014 Rise Set
Actual Time 5:50 AM MDT 8:23 PM MDT
Civil Twilight 5:19 AM MDT 8:54 PM MDT
Nautical Twilight 4:40 AM MDT 9:32 PM MDT
Astronomical Twilight 3:56 AM MDT 10:16 PM MDT
Moon 2:25 AM MDT (7/22) 5:03 PM MDT (7/22)
Length of Visible Light 15h 35m
Length of Day
14h 32m
Waning Crescent, 16% of the Moon is Illuminated
Jul 22
Waning Crescent
Jul 26
New
Aug 3
First Quarter
Aug 10
Full
Aug 17
Last Quarter

Hourly Weather History & Observations

Time (MDT) Temp. Dew Point Humidity Pressure Visibility Wind Dir Wind Speed Gust Speed Precip Events Conditions
12:15 AM 73.4 °F 41.0 °F 31% 30.23 in 10.0 mi Calm Calm - N/A   Clear
12:35 AM 75.2 °F 41.0 °F 29% 30.23 in 10.0 mi NNW 6.9 mph - N/A   Clear
12:54 AM 73.4 °F 41.0 °F 31% 30.23 in 10.0 mi NNW 6.9 mph - N/A   Clear
1:15 AM 71.6 °F 39.2 °F 31% 30.23 in 10.0 mi WNW 12.7 mph - N/A   Clear
1:35 AM 71.6 °F 41.0 °F 33% 30.23 in 10.0 mi NW 11.5 mph - N/A   Clear
1:55 AM 71.6 °F 41.0 °F 33% 30.22 in 10.0 mi WNW 9.2 mph - N/A   Clear
2:15 AM 71.6 °F 39.2 °F 31% 30.22 in 10.0 mi WNW 9.2 mph - N/A   Clear
2:35 AM 71.6 °F 37.4 °F 29% 30.22 in 10.0 mi WNW 10.4 mph - N/A   Clear
2:55 AM 71.6 °F 39.2 °F 31% 30.22 in 10.0 mi West 3.5 mph - N/A   Clear
3:15 AM 71.6 °F 37.4 °F 29% 30.22 in 10.0 mi Calm Calm - N/A   Clear
3:35 AM 71.6 °F 37.4 °F 29% 30.22 in 10.0 mi WSW 3.5 mph - N/A   Clear
3:54 AM 68.0 °F 41.0 °F 37% 30.22 in 10.0 mi SSW 3.5 mph - N/A   Clear
4:15 AM 69.8 °F 39.2 °F 33% 30.23 in 10.0 mi SW 3.5 mph - N/A   Clear
4:35 AM 68.0 °F 39.2 °F 35% 30.24 in 10.0 mi Calm Calm - N/A   Clear
4:55 AM 71.6 °F 39.2 °F 31% 30.24 in 10.0 mi Calm Calm - N/A   Clear
5:15 AM 68.0 °F 39.2 °F 35% 30.25 in 10.0 mi Calm Calm - N/A   Clear
5:35 AM 66.2 °F 42.8 °F 43% 30.27 in 10.0 mi NNE 4.6 mph - N/A   Clear
5:47 AM 66.2 °F 42.8 °F 43% 30.28 in 70.0 mi North 6.9 mph - N/A   Scattered Clouds
5:55 AM 66.2 °F 41.0 °F 40% 30.29 in 10.0 mi NNW 6.9 mph - N/A   Clear
6:47 AM 68.0 °F 44.6 °F 43% 30.31 in 70.0 mi WNW 10.4 mph - N/A   Scattered Clouds
10:48 AM 78.8 °F 48.2 °F 34% 30.38 in 25.0 mi East 6.9 mph - N/A   Partly Cloudy
11:47 AM 82.4 °F 50.0 °F 32% 30.37 in 30.0 mi NE 9.2 mph - N/A   Partly Cloudy
12:55 PM 84.2 °F 48.2 °F 29% 30.36 in 30.0 mi Calm Calm - N/A   Partly Cloudy
2:46 PM 86.0 °F 50.0 °F 29% 30.34 in 30.0 mi SE 3.5 mph - N/A   Scattered Clouds
3:55 PM 91.4 °F 46.4 °F 21% 30.32 in 30.0 mi Calm Calm - N/A   Scattered Clouds
4:47 PM 93.2 °F 46.4 °F 20% 30.31 in 30.0 mi Variable 4.6 mph - N/A   Scattered Clouds
5:53 PM 93.2 °F 46.4 °F 20% 30.31 in 30.0 mi SW 9.2 mph - N/A   Scattered Clouds
7:45 PM 89.6 °F 48.2 °F 24% 30.31 in 40.0 mi Calm Calm - N/A   Scattered Clouds
8:53 PM 78.8 °F 51.8 °F 39% 30.32 in 20.0 mi West 9.2 mph - N/A   Scattered Clouds
9:55 PM 80.6 °F 50.0 °F 34% 30.33 in 30.0 mi NW 10.4 mph - N/A   Partly Cloudy
11:15 PM 78.8 °F 50.0 °F 36% 30.34 in 10.0 mi NNW 10.4 mph - N/A   Clear
11:35 PM 73.4 °F 51.8 °F 47% 30.34 in 10.0 mi Calm Calm - N/A   Clear
11:55 PM 75.2 °F 51.8 °F 44% 30.34 in 10.0 mi Calm Calm - N/A   Clear